ECHOSTAR 19 (41893 NORAD) Tracking and Keplerian Element Data

This shows tracking and keplerian element data for the satellite.

Feedback or suggestion? Click here.




ElementValue
Catalog41893
NameECHOSTAR 19
Epoch Orbit1740
Epoch Day268.63726647
Epoch Year2021
RAAN138.2623
Inclination0.0124
Eccentricity0.0002135
Argument of Perigee58.8306
Mean Anonmoly299.8856
Mean Motion1.00273206
Decay Rate-1.42E-06
L11 41893U 16079A 21268.63726647 -.00000142 00000-0 00000-0 0 9996
L22 41893 0.0124 138.2623 0002135 58.8306 299.8856 1.00273206 17400

Live tracking and technical data element details for ECHOSTAR 19 (NORAD 41893). ECHOSTAR 19 can be tracked NOW for your location showing map with azimuth and elevation plus other details from your city location.

Track the satellite on the map from your city or location and see movement details for azimuth, elevation, latitude, longitude, range, height, and movement on the map or in text.







IsCatalogInMostPopularTable: catalog: 41893, numindb: 593
Update: records affected: 1



GetName: 41893 ECHOSTAR 19

Hit Count: updated at: Mon, 27 Sep 2021 00:14:56 GMT